{"data":{"norad_id":60432,"intl_designator":"2024-144H","name":"STARLINK-32246","alt_names":[],"object_type":"PAYLOAD","status":"ACTIVE","operator":null,"country":"US","launch_date":"2024-08-12","launch_site_code":"AFETR","launch_vehicle":null,"mission":null,"orbit_class":"UNKNOWN","rcs_meters":null,"size_class":null,"mass_kg":null,"dimensions":null,"purposes":["comms"],"wikipedia_slug":null,"has_3d_model":false,"image_url":null,"decayed_at":null,"tle_current":{"epoch":"2026-09-21T15:52:29.505504Z","epoch_age_seconds":85206,"freshness":"FRESH","line1":"1 60432U 24144H   26264.66145261  .00000894  00000+0  37597-4 0  9996","line2":"2 60432  53.1639  24.0044 0001422  77.1136 283.0025 15.34396686119352","mean_motion":15.34396686,"eccentricity":0.0001422,"inclination_deg":53.1639,"raan_deg":24.0044,"arg_perigee_deg":77.1136,"mean_anomaly_deg":283.0025,"bstar":3.7597e-5,"rev_number":11935,"period_min":93.847960774337,"perigee_km":461.74032124841,"apogee_km":463.68585901404,"semimajor_km":6840.8500901312,"source":"CELESTRAK","updated_at":"2026-09-22T09:00:49.234768Z"}}}